| time (UTC) | temp F | wind direction | speed MPH | gust MPH | rain 1hr in | rain 24hr in | rain mn in | humidity % | barometer mb |
| 20260902193637 | 41 | 206 | 0.0 | 0.0 | 0.00 | 0.00 | 0.00 | 100 | 1019.6 |
| 20260902193136 | 40 | 206 | 0.0 | 0.0 | 0.00 | 0.00 | 0.00 | 99 | 1019.7 |
| 20260902192635 | 40 | 206 | 0.0 | 0.0 | 0.00 | 0.00 | 0.00 | 99 | 1019.8 |
| 20260902192135 | 39 | 206 | 0.0 | 0.0 | 0.00 | 0.00 | 0.00 | 99 | 1019.7 |
| 20260902191634 | 39 | 205 | 0.0 | 0.0 | 0.00 | 0.00 | 0.00 | 99 | 1019.7 |
| 20260902191132 | 38 | 205 | 0.0 | 0.0 | 0.00 | 0.00 | 0.00 | 99 | 1019.6 |
| 20260902190632 | 38 | 205 | 0.0 | 0.0 | 0.00 | 0.00 | 0.00 | 98 | 1019.4 |
| 20260902190128 | 38 | 205 | 0.0 | 0.0 | 0.00 | 0.00 | 0.00 | 99 | 1019.3 |
| 20260902185624 | 38 | 205 | 0.0 | 0.0 | 0.00 | 0.00 | 0.00 | 98 | 1019.2 |
| 20260902185128 | 38 | 205 | 0.0 | 0.0 | 0.00 | 0.00 | 0.00 | 98 | 1019.2 |
| 20260902184628 | 38 | 205 | 0.0 | 0.0 | 0.00 | 0.00 | 0.00 | 98 | 1019.1 |
| 20260902184123 | 38 | 205 | 0.0 | 0.0 | 0.00 | 0.00 | 0.00 | 98 | 1019.1 |
| 20260902183622 | 39 | 205 | 0.0 | 0.0 | 0.00 | 0.00 | 0.00 | 99 | 1019.1 |
| 20260902183116 | 39 | 205 | 0.0 | 1.0 | 0.00 | 0.00 | 0.00 | 99 | 1019.0 |
| 20260902182611 | 39 | 205 | 0.0 | 1.0 | 0.00 | 0.00 | 0.00 | 99 | 1019.0 |
| 20260902182103 | 38 | 272 | 0.0 | 0.0 | 0.00 | 0.00 | 0.00 | 98 | 1019.0 |
| 20260902181558 | 38 | 272 | 0.0 | 0.0 | 0.00 | 0.00 | 0.00 | 98 | 1018.9 |
| 20260902181051 | 38 | 272 | 0.0 | 0.0 | 0.00 | 0.00 | 0.00 | 98 | 1018.9 |
| 20260902180545 | 38 | 272 | 0.0 | 0.0 | 0.00 | 0.00 | 0.00 | 98 | 1018.9 |
| 20260902180041 | 38 | 272 | 0.0 | 0.0 | 0.00 | 0.00 | 0.00 | 98 | 1018.9 |
| 20260902175929 | 38 | 272 | 0.0 | 0.0 | 0.00 | 0.00 | 0.00 | 98 | 1019.0 |
| 20260902175028 | 39 | 272 | 0.0 | 0.0 | 0.00 | 0.00 | 0.00 | 98 | 1018.9 |
| 20260902174903 | 39 | 272 | 0.0 | 1.0 | 0.00 | 0.00 | 0.00 | 98 | 1019.0 |
| 20260902174015 | 39 | 272 | 0.0 | 1.0 | 0.00 | 0.00 | 0.00 | 98 | 1018.9 |
| 20260902173511 | 39 | 273 | 0.0 | 0.0 | 0.00 | 0.00 | 0.00 | 98 | 1019.0 |
| 20260902173004 | 39 | 273 | 0.0 | 0.0 | 0.00 | 0.00 | 0.00 | 98 | 1018.9 |
| 20260902172457 | 40 | 273 | 0.0 | 0.0 | 0.00 | 0.00 | 0.00 | 98 | 1018.9 |
| 20260902171952 | 40 | 273 | 0.0 | 0.0 | 0.00 | 0.00 | 0.00 | 98 | 1018.8 |
| 20260902171446 | 40 | 273 | 0.0 | 0.0 | 0.00 | 0.00 | 0.00 | 98 | 1018.6 |
| 20260902170941 | 40 | 273 | 0.0 | 0.0 | 0.00 | 0.00 | 0.00 | 98 | 1018.5 |
| 20260902170446 | 40 | 272 | 0.0 | 0.0 | 0.00 | 0.00 | 0.00 | 98 | 1018.4 |
| 20260902165927 | 40 | 272 | 0.0 | 0.0 | 0.00 | 0.00 | 0.00 | 98 | 1018.4 |
| 20260902165423 | 40 | 273 | 0.0 | 0.0 | 0.00 | 0.00 | 0.00 | 98 | 1018.4 |
| 20260902164916 | 40 | 273 | 0.0 | 0.0 | 0.00 | 0.00 | 0.00 | 98 | 1018.5 |
| 20260902164411 | 40 | 272 | 0.0 | 0.0 | 0.00 | 0.00 | 0.00 | 98 | 1018.5 |
| 20260902163911 | 40 | 272 | 0.0 | 0.0 | 0.00 | 0.00 | 0.00 | 98 | 1018.4 |
| 20260902163413 | 40 | 272 | 0.0 | 0.0 | 0.00 | 0.00 | 0.00 | 97 | 1018.4 |
| 20260902162911 | 40 | 272 | 0.0 | 0.0 | 0.00 | 0.00 | 0.00 | 97 | 1018.5 |
| 20260902162411 | 40 | 272 | 0.0 | 0.0 | 0.00 | 0.00 | 0.00 | 97 | 1018.4 |
| 20260902162311 | 40 | 272 | 0.0 | 0.0 | 0.00 | 0.00 | 0.00 | 97 | 1018.3 |
| 20260902161411 | 40 | 273 | 0.0 | 0.0 | 0.00 | 0.00 | 0.00 | 97 | 1018.3 |
| 20260902160913 | 40 | 273 | 0.0 | 0.0 | 0.00 | 0.00 | 0.00 | 97 | 1018.2 |
| 20260902160410 | 40 | 273 | 0.0 | 0.0 | 0.00 | 0.00 | 0.00 | 97 | 1018.3 |
| 20260902155910 | 40 | 272 | 0.0 | 0.0 | 0.00 | 0.00 | 0.00 | 97 | 1018.1 |
| 20260902155409 | 40 | 273 | 0.0 | 0.0 | 0.00 | 0.00 | 0.00 | 97 | 1018.3 |
| 20260902154906 | 41 | 272 | 0.0 | 0.0 | 0.00 | 0.00 | 0.00 | 97 | 1018.1 |
| 20260902154805 | 41 | 272 | 0.0 | 0.0 | 0.00 | 0.00 | 0.00 | 97 | 1018.1 |
| 20260902153902 | 41 | 273 | 0.0 | 0.0 | 0.00 | 0.00 | 0.00 | 97 | 1018.1 |
| 20260902153407 | 41 | 273 | 0.0 | 0.0 | 0.00 | 0.00 | 0.00 | 97 | 1018.1 |
| 20260902152901 | 41 | 272 | 0.0 | 1.0 | 0.00 | 0.00 | 0.00 | 97 | 1018.0 |
| 20260902152401 | 41 | 272 | 0.0 | 1.0 | 0.00 | 0.00 | 0.00 | 97 | 1018.1 |
| 20260902151902 | 41 | 273 | 0.0 | 0.0 | 0.00 | 0.00 | 0.00 | 97 | 1018.1 |
| 20260902151356 | 41 | 273 | 0.0 | 0.0 | 0.00 | 0.00 | 0.00 | 97 | 1018.2 |
| 20260902150856 | 41 | 272 | 0.0 | 0.0 | 0.00 | 0.00 | 0.00 | 96 | 1018.2 |
| 20260902150755 | 42 | 273 | 0.0 | 0.0 | 0.00 | 0.00 | 0.00 | 97 | 1018.3 |
| 20260902145855 | 41 | 273 | 0.0 | 0.0 | 0.00 | 0.00 | 0.00 | 96 | 1018.4 |
| 20260902145357 | 41 | 272 | 0.0 | 0.0 | 0.00 | 0.00 | 0.00 | 96 | 1018.6 |
| 20260902144857 | 42 | 272 | 0.0 | 0.0 | 0.00 | 0.00 | 0.00 | 95 | 1018.6 |
| 20260902144356 | 42 | 272 | 0.0 | 0.0 | 0.00 | 0.00 | 0.00 | 95 | 1018.6 |
| 20260902143900 | 42 | 272 | 0.0 | 0.0 | 0.00 | 0.00 | 0.00 | 96 | 1018.6 |
| 20260902143355 | 43 | 272 | 0.0 | 0.0 | 0.00 | 0.00 | 0.00 | 96 | 1018.6 |
| 20260902142855 | 43 | 272 | 0.0 | 0.0 | 0.00 | 0.00 | 0.00 | 96 | 1018.6 |
| 20260902142357 | 43 | 272 | 0.0 | 0.0 | 0.00 | 0.00 | 0.00 | 96 | 1018.6 |
| 20260902141856 | 43 | 273 | 0.0 | 0.0 | 0.00 | 0.00 | 0.00 | 96 | 1018.7 |
| 20260902141355 | 43 | 272 | 0.0 | 0.0 | 0.00 | 0.00 | 0.00 | 96 | 1018.7 |
| 20260902141303 | 43 | 273 | 0.0 | 0.0 | 0.00 | 0.00 | 0.00 | 96 | 1018.8 |
| 20260902140351 | 43 | 273 | 0.0 | 0.0 | 0.00 | 0.00 | 0.00 | 95 | 1018.8 |
| 20260902135851 | 43 | 272 | 0.0 | 0.0 | 0.00 | 0.00 | 0.00 | 95 | 1018.9 |
| 20260902135359 | 43 | 272 | 0.0 | 0.0 | 0.00 | 0.00 | 0.00 | 94 | 1018.9 |
| 20260902134852 | 44 | 272 | 0.0 | 1.0 | 0.00 | 0.00 | 0.00 | 94 | 1019.0 |
| 20260902134350 | 44 | 272 | 0.0 | 1.0 | 0.00 | 0.00 | 0.00 | 94 | 1018.9 |
| 20260902133848 | 44 | 286 | 0.0 | 3.0 | 0.00 | 0.00 | 0.00 | 94 | 1018.8 |
| 20260902133342 | 44 | 286 | 0.0 | 3.0 | 0.00 | 0.00 | 0.00 | 94 | 1018.9 |
| 20260902132843 | 44 | 277 | 0.0 | 2.0 | 0.00 | 0.00 | 0.00 | 95 | 1019.0 |
| 20260902132342 | 44 | 270 | 0.0 | 2.0 | 0.00 | 0.00 | 0.00 | 93 | 1019.0 |
| 20260902131842 | 44 | 288 | 0.0 | 0.0 | 0.00 | 0.00 | 0.00 | 93 | 1019.0 |
| 20260902131343 | 44 | 288 | 0.0 | 0.0 | 0.00 | 0.00 | 0.00 | 92 | 1019.0 |
| 20260902130841 | 45 | 288 | 0.0 | 0.0 | 0.00 | 0.00 | 0.00 | 91 | 1019.0 |
| 20260902130342 | 45 | 288 | 0.0 | 0.0 | 0.00 | 0.00 | 0.00 | 90 | 1018.9 |
| 20260902125849 | 45 | 288 | 0.0 | 0.0 | 0.00 | 0.00 | 0.00 | 89 | 1018.9 |
| 20260902125355 | 46 | 288 | 0.0 | 0.0 | 0.00 | 0.00 | 0.00 | 89 | 1018.7 |
| 20260902124840 | 47 | 288 | 0.0 | 0.0 | 0.00 | 0.00 | 0.00 | 88 | 1018.7 |
| 20260902124337 | 47 | 288 | 0.0 | 0.0 | 0.00 | 0.00 | 0.00 | 88 | 1018.6 |
| 20260902123835 | 48 | 288 | 0.0 | 0.0 | 0.00 | 0.00 | 0.00 | 86 | 1018.5 |
| 20260902123331 | 49 | 288 | 0.0 | 0.0 | 0.00 | 0.00 | 0.00 | 85 | 1018.3 |
| 20260902122833 | 50 | 288 | 0.0 | 1.0 | 0.00 | 0.00 | 0.00 | 84 | 1018.5 |
| 20260902122331 | 51 | 288 | 0.0 | 1.0 | 0.00 | 0.00 | 0.00 | 83 | 1018.5 |
| 20260902121827 | 51 | 342 | 0.0 | 3.0 | 0.00 | 0.00 | 0.00 | 84 | 1018.4 |
| 20260902121327 | 51 | 334 | 0.0 | 3.0 | 0.00 | 0.00 | 0.00 | 84 | 1018.3 |
| 20260902120827 | 51 | 315 | 0.0 | 8.0 | 0.00 | 0.00 | 0.00 | 84 | 1018.3 |
| 20260902120729 | 51 | 0 | 0.0 | 8.0 | 0.00 | 0.00 | 0.00 | 84 | 1018.3 |
| 20260902115826 | 50 | 315 | 0.0 | 3.0 | 0.00 | 0.00 | 0.00 | 85 | 1018.3 |
| 20260902115324 | 50 | 342 | 0.0 | 2.0 | 0.00 | 0.00 | 0.00 | 86 | 1018.3 |
| 20260902115014 | 50 | 208 | 0.0 | 1.0 | 0.00 | 0.00 | 0.00 | 85 | 1018.4 |
| 20260902114211 | 51 | 326 | 0.0 | 4.0 | 0.00 | 0.00 | 0.00 | 84 | 1018.2 |
| 20260902113330 | 50 | 302 | 0.0 | 4.0 | 0.00 | 0.00 | 0.00 | 84 | 1018.2 |
| 20260902112829 | 50 | 302 | 0.0 | 1.0 | 0.00 | 0.00 | 0.00 | 83 | 1018.1 |
| 20260902112329 | 51 | 301 | 0.0 | 1.0 | 0.00 | 0.00 | 0.00 | 83 | 1018.0 |
| 20260902111829 | 51 | 303 | 1.0 | 5.0 | 0.00 | 0.00 | 0.00 | 82 | 1017.9 |
| 20260902111329 | 51 | 303 | 1.0 | 5.0 | 0.00 | 0.00 | 0.00 | 84 | 1017.9 |
| 20260902111051 | 50 | 285 | 0.0 | 2.0 | 0.00 | 0.00 | 0.00 | 85 | 1018.0 |
| 20260902110933 | 49 | 266 | 0.0 | 3.0 | 0.00 | 0.00 | 0.00 | 86 | 1018.1 |
| 20260902105723 | 50 | 311 | 0.0 | 1.0 | 0.00 | 0.00 | 0.00 | 84 | 1018.1 |
| 20260902104822 | 51 | 262 | 0.0 | 1.0 | 0.00 | 0.00 | 0.00 | 83 | 1017.9 |
| 20260902104319 | 51 | 262 | 0.0 | 2.0 | 0.00 | 0.00 | 0.00 | 82 | 1017.8 |
| 20260902103816 | 52 | 343 | 0.0 | 4.0 | 0.00 | 0.00 | 0.00 | 82 | 1017.9 |
| 20260902103315 | 51 | 243 | 0.0 | 4.0 | 0.00 | 0.00 | 0.00 | 84 | 1017.9 |
| 20260902102815 | 51 | 326 | 0.0 | 7.0 | 0.00 | 0.00 | 0.00 | 86 | 1017.8 |
| 20260902102317 | 49 | 343 | 0.0 | 7.0 | 0.00 | 0.00 | 0.00 | 89 | 1017.8 |
| 20260902102250 | 49 | 298 | 0.0 | 1.0 | 0.00 | 0.00 | 0.00 | 90 | 1017.7 |
| 20260902101311 | 49 | 308 | 0.0 | 1.0 | 0.00 | 0.00 | 0.00 | 90 | 1017.7 |
| 20260902100811 | 49 | 308 | 0.0 | 1.0 | 0.00 | 0.00 | 0.00 | 90 | 1017.8 |
| 20260902100310 | 49 | 307 | 0.0 | 1.0 | 0.00 | 0.00 | 0.00 | 91 | 1017.8 |
| 20260902095808 | 48 | 307 | 0.0 | 5.0 | 0.00 | 0.00 | 0.00 | 93 | 1017.7 |
| 20260902095307 | 47 | 339 | 0.0 | 5.0 | 0.00 | 0.00 | 0.00 | 95 | 1017.7 |
| 20260902095214 | 46 | 302 | 0.0 | 2.0 | 0.00 | 0.00 | 0.00 | 94 | 1017.7 |
| 20260902094302 | 46 | 232 | 0.0 | 1.0 | 0.00 | 0.00 | 0.00 | 94 | 1017.7 |
| 20260902093754 | 46 | 270 | 0.0 | 0.0 | 0.00 | 0.00 | 0.00 | 93 | 1017.6 |
| 20260902093628 | 46 | 270 | 0.0 | 0.0 | 0.00 | 0.00 | 0.00 | 93 | 1017.7 |
| 20260902092740 | 46 | 270 | 0.0 | 0.0 | 0.00 | 0.00 | 0.00 | 94 | 1017.6 |
| 20260902092235 | 46 | 270 | 0.0 | 0.0 | 0.00 | 0.00 | 0.00 | 93 | 1017.6 |
| 20260902091732 | 46 | 270 | 0.0 | 0.0 | 0.00 | 0.00 | 0.00 | 92 | 1017.5 |
| 20260902091223 | 46 | 270 | 0.0 | 0.0 | 0.00 | 0.00 | 0.00 | 91 | 1017.5 |
| 20260902090717 | 46 | 270 | 0.0 | 0.0 | 0.00 | 0.00 | 0.00 | 91 | 1017.5 |
| 20260902090625 | 47 | 270 | 0.0 | 0.0 | 0.00 | 0.00 | 0.00 | 91 | 1017.5 |
| 20260902090123 | 47 | 270 | 0.0 | 0.0 | 0.00 | 0.00 | 0.00 | 90 | 1017.5 |
| 20260902085329 | 48 | 268 | 0.0 | 0.0 | 0.00 | 0.00 | 0.00 | 88 | 1017.7 |
| 20260902085242 | 47 | 268 | 0.0 | 0.0 | 0.00 | 0.00 | 0.00 | 88 | 1017.6 |
| 20260902083831 | 49 | 268 | 0.0 | 0.0 | 0.00 | 0.00 | 0.00 | 86 | 1017.5 |
| 20260902082631 | 51 | 268 | 0.0 | 0.0 | 0.00 | 0.00 | 0.00 | 85 | 1017.4 |
| 20260902082125 | 51 | 268 | 0.0 | 0.0 | 0.00 | 0.00 | 0.00 | 84 | 1017.4 |
| 20260902081617 | 52 | 268 | 0.0 | 0.0 | 0.00 | 0.00 | 0.00 | 83 | 1017.4 |
| 20260902081111 | 53 | 268 | 0.0 | 1.0 | 0.00 | 0.00 | 0.00 | 82 | 1017.3 |
| 20260902080612 | 53 | 268 | 0.0 | 1.0 | 0.00 | 0.00 | 0.00 | 82 | 1017.3 |
| 20260902075554 | 54 | 310 | 0.0 | 3.0 | 0.00 | 0.00 | 0.00 | 81 | 1017.3 |
| 20260902075048 | 53 | 333 | 0.0 | 7.0 | 0.00 | 0.00 | 0.00 | 82 | 1017.4 |
| 20260902074551 | 53 | 293 | 1.0 | 7.0 | 0.00 | 0.00 | 0.00 | 83 | 1017.3 |
| 20260902074040 | 53 | 313 | 0.0 | 4.0 | 0.00 | 0.00 | 0.00 | 85 | 1017.3 |
| 20260902073540 | 52 | 315 | 0.0 | 3.0 | 0.00 | 0.00 | 0.00 | 86 | 1017.4 |
| 20260902073433 | 52 | 317 | 0.0 | 3.0 | 0.00 | 0.00 | 0.00 | 86 | 1017.3 |
| 20260902072537 | 51 | 317 | 0.0 | 3.0 | 0.00 | 0.00 | 0.00 | 87 | 1017.3 |
| 20260902072037 | 51 | 31 | 0.0 | 3.0 | 0.00 | 0.00 | 0.00 | 87 | 1017.1 |
| 20260902071536 | 51 | 281 | 0.0 | 2.0 | 0.00 | 0.00 | 0.00 | 89 | 1017.1 |
| 20260902071035 | 50 | 244 | 0.0 | 2.0 | 0.00 | 0.00 | 0.00 | 89 | 1017.1 |
| 20260902070538 | 50 | 314 | 0.0 | 0.0 | 0.00 | 0.00 | 0.00 | 88 | 1017.2 |
| 20260902070039 | 51 | 314 | 0.0 | 0.0 | 0.00 | 0.00 | 0.00 | 86 | 1017.2 |
| 20260902065535 | 51 | 314 | 0.0 | 0.0 | 0.00 | 0.00 | 0.00 | 85 | 1017.2 |
| 20260902065032 | 52 | 314 | 0.0 | 1.0 | 0.00 | 0.00 | 0.00 | 85 | 1017.1 |
| 20260902064530 | 52 | 314 | 0.0 | 1.0 | 0.00 | 0.00 | 0.00 | 85 | 1017.1 |
| 20260902064030 | 53 | 314 | 0.0 | 1.0 | 0.00 | 0.00 | 0.00 | 85 | 1017.0 |
| 20260902063531 | 53 | 314 | 0.0 | 3.0 | 0.00 | 0.00 | 0.00 | 85 | 1016.9 |
| 20260902063030 | 53 | 349 | 0.0 | 3.0 | 0.00 | 0.00 | 0.00 | 86 | 1016.8 |
| 20260902062530 | 52 | 284 | 0.0 | 3.0 | 0.00 | 0.00 | 0.00 | 86 | 1016.8 |
| 20260902062029 | 53 | 304 | 0.0 | 0.0 | 0.00 | 0.00 | 0.00 | 85 | 1016.9 |
| 20260902061029 | 54 | 304 | 0.0 | 0.0 | 0.00 | 0.00 | 0.00 | 82 | 1016.5 |
| 20260902060530 | 55 | 304 | 0.0 | 0.0 | 0.00 | 0.00 | 0.00 | 81 | 1016.5 |
| 20260902060023 | 56 | 304 | 0.0 | 0.0 | 0.00 | 0.00 | 0.00 | 79 | 1016.5 |
| 20260902055522 | 57 | 304 | 0.0 | 0.0 | 0.00 | 0.00 | 0.00 | 77 | 1016.4 |
| 20260902055017 | 58 | 304 | 0.0 | 3.0 | 0.00 | 0.00 | 0.00 | 75 | 1016.3 |
| 20260902054517 | 59 | 304 | 0.0 | 4.0 | 0.00 | 0.00 | 0.00 | 74 | 1016.3 |
| 20260902054017 | 59 | 352 | 0.0 | 4.0 | 0.00 | 0.00 | 0.00 | 72 | 1016.4 |
| 20260902053514 | 60 | 305 | 0.0 | 3.0 | 0.00 | 0.00 | 0.00 | 72 | 1016.2 |
| 20260902053015 | 60 | 306 | 0.0 | 6.0 | 0.00 | 0.00 | 0.00 | 71 | 1016.2 |
| 20260902052924 | 60 | 284 | 0.0 | 6.0 | 0.00 | 0.00 | 0.00 | 71 | 1016.0 |
| 20260902052015 | 60 | 315 | 0.0 | 5.0 | 0.00 | 0.00 | 0.00 | 71 | 1016.0 |
| 20260902051514 | 61 | 307 | 0.0 | 5.0 | 0.00 | 0.00 | 0.00 | 71 | 1016.0 |
| 20260902051014 | 61 | 284 | 1.0 | 5.0 | 0.00 | 0.00 | 0.00 | 71 | 1015.9 |
| 20260902050933 | 61 | 289 | 0.0 | 5.0 | 0.00 | 0.00 | 0.00 | 70 | 1015.8 |
| 20260902050421 | 61 | 307 | 0.0 | 2.0 | 0.00 | 0.00 | 0.00 | 69 | 1015.8 |
| 20260902045515 | 62 | 276 | 0.0 | 2.0 | 0.00 | 0.00 | 0.00 | 69 | 1015.8 |
| 20260902045418 | 62 | 312 | 0.0 | 3.0 | 0.00 | 0.00 | 0.00 | 67 | 1015.8 |
| 20260902044512 | 62 | 322 | 0.0 | 6.0 | 0.00 | 0.00 | 0.00 | 67 | 1015.8 |
| 20260902044012 | 63 | 2 | 0.0 | 6.0 | 0.00 | 0.00 | 0.00 | 66 | 1015.8 |
| 20260902043512 | 63 | 271 | 0.0 | 3.0 | 0.00 | 0.00 | 0.00 | 66 | 1015.8 |
| 20260902043409 | 63 | 289 | 0.0 | 2.0 | 0.00 | 0.00 | 0.00 | 65 | 1015.7 |
| 20260902042507 | 64 | 312 | 0.0 | 2.0 | 0.00 | 0.00 | 0.00 | 65 | 1015.8 |
| 20260902042001 | 64 | 291 | 0.0 | 7.0 | 0.00 | 0.00 | 0.00 | 62 | 1015.8 |
| 20260902041453 | 65 | 311 | 0.0 | 7.0 | 0.00 | 0.00 | 0.00 | 62 | 1015.8 |
| 20260902040947 | 66 | 311 | 0.0 | 4.0 | 0.00 | 0.00 | 0.00 | 59 | 1016.0 |
| 20260902040441 | 66 | 335 | 0.0 | 5.0 | 0.00 | 0.00 | 0.00 | 62 | 1015.9 |
| 20260902035935 | 65 | 317 | 1.0 | 5.0 | 0.00 | 0.00 | 0.00 | 64 | 1015.7 |
| 20260902035557 | 65 | 303 | 0.0 | 4.0 | 0.00 | 0.00 | 0.00 | 64 | 1015.7 |
| 20260902034417 | 66 | 337 | 0.0 | 4.0 | 0.00 | 0.00 | 0.00 | 60 | 1015.6 |
| 20260902033912 | 66 | 320 | 0.0 | 5.0 | 0.00 | 0.00 | 0.00 | 61 | 1015.6 |
| 20260902033404 | 67 | 336 | 1.0 | 5.0 | 0.00 | 0.00 | 0.00 | 59 | 1015.7 |
| 20260902033033 | 67 | 340 | 0.0 | 4.0 | 0.00 | 0.00 | 0.00 | 63 | 1015.7 |
| 20260902031846 | 67 | 322 | 1.0 | 8.0 | 0.00 | 0.00 | 0.00 | 58 | 1015.9 |
| 20260902031821 | 68 | 322 | 1.0 | 7.0 | 0.00 | 0.00 | 0.00 | 56 | 1016.0 |
| 20260902030834 | 68 | 265 | 1.0 | 7.0 | 0.00 | 0.00 | 0.00 | 59 | 1016.1 |
| 20260902030724 | 67 | 324 | 1.0 | 6.0 | 0.00 | 0.00 | 0.00 | 59 | 1016.0 |
| 20260902025822 | 68 | 335 | 1.0 | 6.0 | 0.00 | 0.00 | 0.00 | 58 | 1016.1 |
| 20260902025317 | 68 | 323 | 1.0 | 5.0 | 0.00 | 0.00 | 0.00 | 60 | 1016.1 |
| 20260902024811 | 67 | 345 | 0.0 | 5.0 | 0.00 | 0.00 | 0.00 | 57 | 1016.1 |
| 20260902024304 | 66 | 3 | 1.0 | 4.0 | 0.00 | 0.00 | 0.00 | 59 | 1016.2 |
| 20260902024153 | 66 | 317 | 1.0 | 4.0 | 0.00 | 0.00 | 0.00 | 59 | 1016.3 |
| 20260902023253 | 67 | 346 | 1.0 | 5.0 | 0.00 | 0.00 | 0.00 | 58 | 1016.4 |
| 20260902022747 | 66 | 322 | 1.0 | 6.0 | 0.00 | 0.00 | 0.00 | 63 | 1016.5 |
| 20260902022241 | 65 | 317 | 1.0 | 9.0 | 0.00 | 0.00 | 0.00 | 62 | 1016.5 |
| 20260902021734 | 66 | 336 | 1.0 | 9.0 | 0.00 | 0.00 | 0.00 | 61 | 1016.4 |
| 20260902021228 | 67 | 296 | 1.0 | 4.0 | 0.00 | 0.00 | 0.00 | 59 | 1016.4 |
| 20260902020722 | 68 | 346 | 1.0 | 4.0 | 0.00 | 0.00 | 0.00 | 59 | 1016.3 |
| 20260902020216 | 68 | 352 | 1.0 | 4.0 | 0.00 | 0.00 | 0.00 | 60 | 1016.2 |
| 20260902015711 | 67 | 305 | 1.0 | 5.0 | 0.00 | 0.00 | 0.00 | 64 | 1016.3 |
| 20260902015207 | 66 | 312 | 1.0 | 7.0 | 0.00 | 0.00 | 0.00 | 63 | 1016.4 |
| 20260902014658 | 66 | 26 | 1.0 | 7.0 | 0.00 | 0.00 | 0.00 | 61 | 1016.4 |
| 20260902014152 | 66 | 338 | 1.0 | 5.0 | 0.00 | 0.00 | 0.00 | 65 | 1016.5 |
| 20260902013647 | 66 | 264 | 1.0 | 5.0 | 0.00 | 0.00 | 0.00 | 64 | 1016.5 |
| 20260902013141 | 65 | 278 | 1.0 | 5.0 | 0.00 | 0.00 | 0.00 | 64 | 1016.5 |
| 20260902012812 | 66 | 300 | 0.0 | 5.0 | 0.00 | 0.00 | 0.00 | 64 | 1016.5 |
| 20260902011623 | 66 | 251 | 1.0 | 4.0 | 0.00 | 0.00 | 0.00 | 63 | 1016.8 |
| 20260902011123 | 65 | 265 | 0.0 | 3.0 | 0.00 | 0.00 | 0.00 | 64 | 1017.0 |
| 20260902010104 | 64 | 343 | 0.0 | 3.0 | 0.00 | 0.00 | 0.00 | 63 | 1017.2 |
| 20260902005558 | 65 | 356 | 1.0 | 5.0 | 0.00 | 0.00 | 0.00 | 65 | 1017.3 |
| 20260902005053 | 65 | 340 | 1.0 | 5.0 | 0.00 | 0.00 | 0.00 | 62 | 1017.3 |
| 20260902004546 | 65 | 209 | 0.0 | 3.0 | 0.00 | 0.00 | 0.00 | 62 | 1017.4 |
| 20260902004041 | 65 | 348 | 0.0 | 4.0 | 0.00 | 0.00 | 0.00 | 65 | 1017.4 |
| 20260902003537 | 64 | 338 | 1.0 | 4.0 | 0.00 | 0.00 | 0.00 | 65 | 1017.5 |
| 20260902003037 | 65 | 270 | 1.0 | 4.0 | 0.00 | 0.00 | 0.00 | 62 | 1017.5 |
| 20260902003009 | 65 | 291 | 1.0 | 9.0 | 0.00 | 0.00 | 0.00 | 64 | 1017.5 |
| 20260902002034 | 65 | 12 | 2.0 | 9.0 | 0.00 | 0.00 | 0.00 | 64 | 1017.6 |
| 20260902001954 | 65 | 337 | 1.0 | 6.0 | 0.00 | 0.00 | 0.00 | 64 | 1017.5 |
| 20260902001040 | 64 | 35 | 1.0 | 8.0 | 0.00 | 0.00 | 0.00 | 66 | 1017.5 |
| 20260902000540 | 63 | 258 | 1.0 | 8.0 | 0.00 | 0.00 | 0.00 | 67 | 1017.5 |
| 20260902000038 | 62 | 310 | 1.0 | 9.0 | 0.00 | 0.00 | 0.00 | 69 | 1017.6 |
| 20260901235535 | 62 | 274 | 1.0 | 9.0 | 0.00 | 0.00 | 0.00 | 66 | 1017.7 |
| 20260901235034 | 63 | 4 | 1.0 | 7.0 | 0.00 | 0.00 | 0.00 | 66 | 1017.8 |
| 20260901234536 | 63 | 355 | 1.0 | 7.0 | 0.00 | 0.00 | 0.00 | 66 | 1017.7 |
| 20260901234036 | 63 | 338 | 1.0 | 7.0 | 0.00 | 0.00 | 0.00 | 68 | 1017.8 |
| 20260901234000 | 63 | 291 | 2.0 | 7.0 | 0.00 | 0.00 | 0.00 | 65 | 1017.8 |
| 20260901233036 | 64 | 319 | 2.0 | 10.0 | 0.00 | 0.00 | 0.00 | 63 | 1017.9 |
| 20260901232944 | 64 | 326 | 2.0 | 10.0 | 0.00 | 0.00 | 0.00 | 64 | 1017.9 |
| 20260901232032 | 64 | 355 | 2.0 | 9.0 | 0.00 | 0.00 | 0.00 | 65 | 1017.9 |
| 20260901231527 | 64 | 319 | 2.0 | 7.0 | 0.00 | 0.00 | 0.00 | 64 | 1017.9 |
| 20260901231027 | 64 | 242 | 1.0 | 8.0 | 0.00 | 0.00 | 0.00 | 68 | 1018.0 |
| 20260901230527 | 62 | 20 | 1.0 | 8.0 | 0.00 | 0.00 | 0.00 | 71 | 1017.9 |
| 20260901230028 | 61 | 255 | 1.0 | 6.0 | 0.00 | 0.00 | 0.00 | 68 | 1018.1 |
| 20260901230020 | 61 | 323 | 1.0 | 6.0 | 0.00 | 0.00 | 0.00 | 70 | 1018.2 |
| 20260901225028 | 61 | 326 | 1.0 | 6.0 | 0.00 | 0.00 | 0.00 | 68 | 1018.0 |
| 20260901224948 | 61 | 149 | 1.0 | 5.0 | 0.00 | 0.00 | 0.00 | 70 | 1018.1 |
| 20260901224027 | 61 | 318 | 1.0 | 9.0 | 0.00 | 0.00 | 0.00 | 69 | 1017.8 |
| 20260901223528 | 60 | 317 | 1.0 | 9.0 | 0.00 | 0.00 | 0.00 | 71 | 1017.9 |
| 20260901223222 | 61 | 306 | 1.0 | 9.0 | 0.00 | 0.00 | 0.00 | 71 | 1017.9 |
| 20260901222026 | 61 | 317 | 1.0 | 8.0 | 0.00 | 0.00 | 0.00 | 70 | 1018.0 |
| 20260901221938 | 61 | 120 | 1.0 | 6.0 | 0.00 | 0.00 | 0.00 | 69 | 1018.1 |
| 20260901221027 | 61 | 342 | 1.0 | 6.0 | 0.00 | 0.00 | 0.00 | 68 | 1018.0 |
| 20260901220528 | 61 | 341 | 1.0 | 7.0 | 0.00 | 0.00 | 0.00 | 69 | 1018.4 |
| 20260901220026 | 60 | 315 | 2.0 | 7.0 | 0.00 | 0.00 | 0.00 | 68 | 1018.2 |
| 20260901215526 | 61 | 346 | 1.0 | 7.0 | 0.00 | 0.00 | 0.00 | 69 | 1018.0 |
| 20260901215022 | 62 | 346 | 1.0 | 5.0 | 0.00 | 0.00 | 0.00 | 69 | 1018.1 |
| 20260901214529 | 61 | 311 | 2.0 | 7.0 | 0.00 | 0.00 | 0.00 | 70 | 1018.1 |
| 20260901214444 | 60 | 329 | 2.0 | 9.0 | 0.00 | 0.00 | 0.00 | 69 | 1018.2 |
| 20260901213527 | 60 | 196 | 2.0 | 9.0 | 0.00 | 0.00 | 0.00 | 69 | 1018.3 |
| 20260901213026 | 60 | 305 | 2.0 | 13.0 | 0.00 | 0.00 | 0.00 | 69 | 1018.4 |
| 20260901212525 | 60 | 312 | 2.0 | 13.0 | 0.00 | 0.00 | 0.00 | 70 | 1018.5 |
| 20260901212022 | 60 | 329 | 1.0 | 8.0 | 0.00 | 0.00 | 0.00 | 70 | 1018.5 |
| 20260901211519 | 61 | 357 | 1.0 | 7.0 | 0.00 | 0.00 | 0.00 | 69 | 1018.5 |
| 20260901211423 | 60 | 2 | 1.0 | 5.0 | 0.00 | 0.00 | 0.00 | 69 | 1018.5 |
| 20260901210516 | 60 | 313 | 1.0 | 6.0 | 0.00 | 0.00 | 0.00 | 70 | 1018.4 |
| 20260901210017 | 60 | 354 | 1.0 | 6.0 | 0.00 | 0.00 | 0.00 | 69 | 1018.2 |
| 20260901205516 | 60 | 334 | 1.0 | 6.0 | 0.00 | 0.00 | 0.00 | 71 | 1018.1 |
| 20260901205016 | 60 | 2 | 1.0 | 5.0 | 0.00 | 0.00 | 0.00 | 70 | 1018.3 |
| 20260901204516 | 60 | 270 | 1.0 | 5.0 | 0.00 | 0.00 | 0.00 | 70 | 1018.3 |
| 20260901204021 | 59 | 338 | 1.0 | 6.0 | 0.00 | 0.00 | 0.00 | 71 | 1018.3 |
| 20260901203929 | 59 | 322 | 1.0 | 6.0 | 0.00 | 0.00 | 0.00 | 71 | 1018.4 |
| 20260901203018 | 58 | 293 | 1.0 | 5.0 | 0.00 | 0.00 | 0.00 | 72 | 1018.3 |
| 20260901202515 | 58 | 348 | 1.0 | 6.0 | 0.00 | 0.00 | 0.00 | 73 | 1018.4 |
| 20260901202013 | 58 | 330 | 1.0 | 6.0 | 0.00 | 0.00 | 0.00 | 72 | 1018.3 |
| 20260901201506 | 58 | 347 | 1.0 | 6.0 | 0.00 | 0.00 | 0.00 | 73 | 1018.2 |
| 20260901201002 | 57 | 349 | 0.0 | 6.0 | 0.00 | 0.00 | 0.00 | 73 | 1018.2 |
| 20260901200455 | 57 | 5 | 1.0 | 5.0 | 0.00 | 0.00 | 0.00 | 74 | 1018.2 |
| 20260901195951 | 57 | 346 | 1.0 | 5.0 | 0.00 | 0.00 | 0.00 | 74 | 1018.2 |
| 20260901195443 | 57 | 310 | 0.0 | 3.0 | 0.00 | 0.00 | 0.00 | 74 | 1018.2 |
| 20260901194937 | 56 | 287 | 0.0 | 3.0 | 0.00 | 0.00 | 0.00 | 75 | 1018.2 |
| 20260901194432 | 56 | 242 | 0.0 | 2.0 | 0.00 | 0.00 | 0.00 | 74 | 1018.1 |
| 20260901194104 | 56 | 285 | 0.0 | 4.0 | 0.00 | 0.00 | 0.00 | 75 | 1018.0 |